Location: Eastling
(51.2667°N, 0.8167°E)
Time: 07:26:40
(UTC+00:00)

Daily predictions for brighter satellites

Satellite Brightness Start Highest point End
(mag) Time Altitude Azimuth Time Altitude Azimuth Time Altitude Azimuth
ATLAS 2AS CENTAUR R/B 2.9 20:18:19 10° SW 20:25:43 83° SE 20:32:49 10° NE
SPOT 3 Rocket 4.3 20:24:57 10° SE 20:29:43 40° ENE 20:34:30 10° N
Cosmos 1782 2.8 20:26:32 10° SSW 20:30:21 81° W 20:34:11 10° N
IRS-1A Rocket 4.3 20:26:48 10° SSE 20:32:26 75° ENE 20:38:00 10° NNW
Cosmos 1943 Rocket 3.1 20:28:06 10° NW 20:33:30 46° WSW 20:38:51 10° S
Cosmos 1420 Rocket 4.1 20:29:16 10° NNW 20:34:37 80° ENE 20:39:55 10° SSE
USA 281 3.7 20:28:21 10° SE 20:34:42 53° NE 20:41:04 10° NNW
Cosmos 1743 3.3 20:34:31 10° N 20:37:55 37° ENE 20:41:17 10° SE
Cosmos 2278 Rocket 4.0 20:33:23 10° NW 20:38:05 27° WSW 20:42:46 10° SSW
NOSS 3-1 (A) 4.3 20:31:49 10° NW 20:38:58 72° SW 20:47:41 10° SSE
ISS -3.7 20:35:44 10° W 20:39:05 82° N 20:42:25 10° E
Cosmos 972 4.3 20:35:52 10° SSW 20:40:43 72° ESE 20:45:41 10° NNE
USA 245 2.2 20:42:40 10° SSE 20:44:49 51° ENE 20:47:01 10° N
Cosmos 2297 3.8 20:39:55 10° NNW 20:45:42 75° ENE 20:51:24 10° SE
Cosmos 1634 Rocket 4.3 20:40:03 10° N 20:46:17 56° ENE 20:52:24 10° SSE
USA 290 2.8 20:46:59 10° NNW 20:50:09 52° WSW 20:53:17 10° S
Cosmos 2112 Rocket 4.2 20:45:01 10° S 20:50:10 54° ESE 20:55:20 10° NNE
Cosmos 1766 Rocket 3.7 20:46:38 10° N 20:51:04 62° ENE 20:55:28 10° SSE
Okean-O 3.7 20:48:13 10° S 20:52:24 43° W 20:56:38 10° NNW
USA 229 DEB 4.1 20:46:37 10° NW 20:53:55 75° NE 21:01:46 10° SE
USA 229 4.1 20:46:43 10° NW 20:54:01 74° NE 21:01:53 10° SE
Cosmos 2034 Rocket 4.2 20:49:06 10° NNW 20:55:17 75° W 21:01:31 10° S
Cosmos 1726 3.2 20:53:49 10° NNE 20:56:26 23° ENE 20:58:35 12° ESE
Cosmos-2242 4.4 20:52:29 10° SW 20:56:28 41° WNW 21:00:31 10° N
Spot 2 Rocket 3.5 20:54:13 10° SSE 20:59:14 74° ENE 21:04:17 10° NNW
Cosmos 1680 Rocket 3.5 20:55:07 10° SSW 21:00:23 75° ESE 21:05:40 10° NNE
Meteor 2-6 Rocket 4.5 20:59:17 10° SSE 21:04:41 49° E 21:09:59 10° NNE
USA 32 4.1 21:01:59 10° S 21:07:09 66° E 21:12:20 10° NNE
Tsikada Rocket 4.0 21:03:24 10° S 21:09:34 80° E 21:15:51 10° NNE
CZ-4C R/B 4.3 21:06:40 10° N 21:10:12 46° WNW 21:13:52 10° SW
Sich 1 4.5 21:09:13 10° NNE 21:12:50 25° ENE 21:15:51 13° ESE
USA 276 1.8 21:12:06 10° W 21:14:12 40° SSW 21:15:14 23° SE
MetOp-A 4.1 21:11:24 14° SE 21:14:59 51° ENE 21:19:38 10° N
Cosmos 2263 4.3 21:09:29 10° NNW 21:15:11 72° ENE 21:20:00 15° SE
SL-16 R/B 2.2 21:10:05 10° SSW 21:15:44 79° ESE 21:21:28 10° NNE
Cosmos 2056 Rocket 4.0 21:13:08 10° NNW 21:18:28 58° WSW 21:23:28 11° S
MOS 1 Rocket 3.5 21:13:56 13° SSE 21:18:29 81° ENE 21:23:47 10° NNW
Lacrosse 5 3.0 21:14:40 10° WNW 21:19:14 33° SW 21:23:08 13° SSE
Cosmos 1536 3.5 21:16:01 10° N 21:19:40 38° ENE 21:22:15 17° SE
Cosmos 1624 Rocket 4.5 21:15:44 10° NNW 21:20:48 56° WSW 21:25:35 11° S
Lacrosse 5 rocket 1.3 21:17:00 10° WSW 21:21:19 88° SSE 21:25:33 10° ENE
Ariane Rocket 3.1 21:16:49 11° S 21:21:41 76° WSW 21:26:47 10° NNW
Cosmos 1452 Rocket 3.9 21:17:28 10° NNW 21:22:39 56° ENE 21:26:45 16° SE
Cosmos 1408 Rocket 4.1 21:18:46 10° N 21:23:04 45° ENE 21:26:12 17° SE
Cosmos 44 3.9 21:18:27 10° NW 21:23:08 47° WSW 21:26:45 15° SSE
Spot 1 4.2 21:20:27 10° NNE 21:24:23 47° E 21:27:37 15° S
Cosmos 1340 4.3 21:24:28 10° NNE 21:26:58 19° ENE 21:28:49 13° ESE
Cosmos 2369 Rocket 2.3 21:22:16 10° NNW 21:27:52 75° WSW 21:32:23 16° SSE
Okean 1 4.4 21:25:59 18° SE 21:27:54 26° E 21:31:08 10° NNE
Cosmos 2221 2.9 21:24:01 10° SSW 21:28:18 66° WNW 21:32:38 10° N
Cosmos 2084 3.8 21:27:53 10° NW 21:31:29 43° SW 21:33:53 19° SSE
FALCON 9 R/B 4.5 21:29:06 10° SW 21:35:10 30° SSE 21:51:15 10° ESE
USA 306 2.9 21:37:25 10° WNW 21:41:14 66° NNE 21:45:07 10° E
Cosmos 2237 Rocket 4.3 21:38:08 10° WSW 21:43:09 31° NW 21:48:13 10° NNE
Cosmos 921 Rocket 3.1 21:38:48 10° SSW 21:43:17 84° WNW 21:47:49 10° NNE
Okean 3 Rocket 3.7 21:40:22 10° NNW 21:44:47 70° W 21:48:05 17° S
GEOS 3 Rocket 3.5 21:41:09 10° NE 21:46:22 83° SE 21:51:30 10° SW
ATLAS 3B R/B 4.0 21:43:48 10° NW 21:50:44 36° WSW 21:57:02 12° S
Landsat 5 3.1 21:48:19 10° NNE 21:52:07 83° ESE 21:54:55 17° SSW
SL-8 R/B 4.4 21:50:08 10° SSW 21:54:14 29° SSE 21:58:21 10° E
Cosmos 1500 Rocket 3.6 21:51:08 10° N 21:55:28 69° ENE 21:57:58 24° SSE
Terra 3.2 21:52:52 10° SSW 21:57:06 32° W 22:01:21 10° NNW
Cosmos 1733 3.4 21:55:09 10° N 21:58:36 50° ENE 22:00:07 28° SE
Cosmos 1943 3.3 21:53:57 12° S 21:59:07 59° ESE 22:04:42 10° NE
ALOS 2 4.5 21:58:50 12° ESE 22:01:40 21° ENE 22:04:57 10° NNE
USA 234 3.8 21:55:30 10° E 22:01:56 61° NNE 22:08:22 10° WNW
Cosmos 1048 Rocket 3.9 21:59:01 13° SSW 22:03:35 72° ESE 22:08:42 10° NNE
Cosmos 1805 Rocket 3.6 22:00:01 10° N 22:04:24 71° ENE 22:06:48 26° SSE
H-2A R/B 3.5 22:02:30 20° ESE 22:04:44 35° ENE 22:08:36 10° N
Cosmos 1842 Rocket 3.9 22:01:41 12° SSW 22:05:45 64° WNW 22:10:10 10° N
Lacrosse 4 Rocket 3.4 22:03:32 10° NNW 22:06:41 21° NE 22:09:52 10° E
Cosmos 494 Rocket 4.0 22:01:41 10° SSW 22:06:47 82° WNW 22:11:56 10° NNE
Meteor 1-10 Rocket 4.2 22:02:23 14° S 22:07:21 88° ESE 22:13:02 10° NNE
Cosmos 1151 Rocket 3.7 22:08:37 26° SE 22:10:29 40° E 22:14:34 10° NNE
Meteor 2-9 Rocket 4.3 22:05:15 10° NNW 22:11:04 89° ENE 22:14:56 23° SSE
Cosmos 1302 Rocket 4.2 22:08:54 10° NNW 22:14:05 63° ENE 22:17:13 24° SE
Meteor 1-11 Rocket 3.9 22:08:44 10° NNW 22:14:19 70° W 22:18:13 21° S
ISS -3.6 22:12:25 10° W 22:15:41 53° SSW 22:16:32 39° SSE
Cosmos 1633 Rocket 4.3 22:12:00 10° N 22:15:56 30° ENE 22:18:08 20° ESE
Meteor 2-10 4.2 22:10:36 10° NNW 22:16:16 86° WSW 22:19:41 24° S
ATLAS 2AS CENTAUR R/B 4.2 22:10:30 10° W 22:17:19 41° NNW 22:23:53 10° NE
Meteor 1-19 Rocket 4.3 22:14:06 21° S 22:18:12 70° E 22:23:58 10° NNE
ARIANE 5 R/B 2.6 22:16:04 28° SSE 22:18:19 71° ENE 22:22:38 10° N
Cosmos 1340 Rocket 3.1 22:17:22 31° SSE 22:18:58 52° E 22:22:53 10° NNE
USA 281 4.0 22:14:24 16° S 22:19:20 42° WSW 22:25:34 10° NW
USA 59 Rocket 0.7 22:15:56 10° NW 22:19:27 47° NE 22:22:59 16° ESE
Cosmos 1331 Rocket 4.2 22:15:00 10° NNW 22:20:11 62° WSW 22:23:13 25° S
NOSS 2-1 (E) 4.1 22:16:48 10° NW 22:20:19 48° NE 22:23:50 16° ESE
MINOTAUR 4 R/B 3.8 22:18:59 10° NNE 22:21:54 49° ESE 22:22:22 44° SE
Cosmos 1110 Rocket 4.4 22:16:52 10° NNW 22:22:05 56° WSW 22:25:12 23° S
BREEZE-M DEB (TANK) 4.3 22:18:49 10° WSW 22:22:51 73° SSE 22:40:49 10° E
H-2A R/B 4.4 22:23:56 10° ENE 22:24:44 10° E 22:25:32 10° E
CZ-2C R/B 3.8 22:20:40 10° NNE 22:25:12 61° ESE 22:27:22 29° S
Cosmos 1726 3.7 22:27:03 10° NW 22:29:34 22° W 22:31:07 16° SW
NOSS 2-1 (D) 3.8 22:28:23 10° NW 22:31:58 60° NE 22:34:55 21° ESE
Nadezhda 4 Rocket 4.0 22:30:38 21° S 22:34:57 88° E 22:41:15 10° N
Cosmos 1805 3.0 22:35:11 10° N 22:38:55 80° E 22:40:09 40° SSE
IRIDIUM 106 4.3 22:36:48 10° N 22:42:03 82° E 22:44:45 29° S
Cosmos 1743 Rocket 4.1 22:41:33 10° NNW 22:45:47 50° W 22:47:56 26° SSW
Sich 1 3.9 22:46:20 10° NNW 22:50:26 42° W 22:52:35 24° SSW
Spot 2 4.4 22:50:57 31° SE 22:53:03 67° ENE 22:57:51 10° N
Cosmos 1975 2.7 22:51:54 10° N 22:55:51 87° W 22:57:09 42° S
Lacrosse 5 rocket 2.8 22:55:59 10° W 23:00:02 40° N 23:03:57 10° ENE
SL-16 R/B 4.3 22:55:44 10° W 23:00:29 27° NW 23:05:18 10° NNE
Cosmos 1340 3.5 22:58:14 10° NNW 23:01:21 34° W 23:02:14 29° SW
Cosmos 1603 3.8 22:57:29 16° SW 23:02:09 78° WNW 23:07:55 10° NNE
Cosmos 1626 1.9 23:04:41 50° ESE 23:04:59 53° E 23:08:10 10° NNE
PSLV R/B 4.1 23:02:30 10° N 23:06:34 66° WNW 23:08:26 30° SW
USA 267 3.5 23:00:56 10° ENE 23:07:09 45° SE 23:10:42 24° SSW
NOSS 2-1 (C) 3.4 23:03:29 10° NW 23:07:13 78° SW 23:09:08 34° SSE
Cosmos 1674 4.0 23:07:50 22° E 23:08:12 23° E 23:11:00 10° NE
Meteor 1-27 Rocket 4.4 23:04:40 16° SW 23:08:53 50° WNW 23:14:16 10° N
Cosmos 1627 Rocket 4.5 23:05:12 27° S 23:08:53 85° E 23:15:14 10° N
Cosmos 2369 Rocket 4.3 23:08:13 10° WNW 23:10:55 14° W 23:13:36 10° SW
USA 306 2.8 23:11:13 10° WNW 23:14:59 48° SSW 23:15:15 47° SSW
Cosmos 2026 Rocket 4.0 23:12:22 27° SSW 23:16:06 86° W 23:22:25 10° N
Cosmos 1833 Rocket 4.0 23:17:10 21° SE 23:18:46 24° ESE 23:23:11 10° NE
NOSS 3-3 (C) 4.5 23:26:06 30° SSE 23:27:43 36° ESE 23:33:23 10° NE
Cosmos 220 Rocket 3.9 23:30:05 41° SSW 23:31:32 79° ESE 23:35:53 10° NNE
Cosmos 1515 Rocket 3.8 23:31:37 39° SSE 23:32:54 56° E 23:37:09 10° NNE
GP-B 4.4 23:30:18 10° NNE 23:34:12 30° E 23:35:54 23° ESE
Cosmos 1328 Rocket 3.6 23:33:10 36° SSW 23:34:50 70° WNW 23:39:11 10° N
SL-8 R/B 3.6 23:31:29 10° WSW 23:36:10 58° S 23:40:52 10° E
Cosmos 1553 Rocket 3.9 23:30:29 10° N 23:36:36 85° W 23:39:39 32° S
Meteor 1-18 Rocket 4.4 23:33:56 28° SSW 23:37:14 76° WNW 23:43:12 10° N
ALOS 2 2.8 23:36:13 38° SSW 23:37:38 58° W 23:42:00 10° NNW
Spot 4 4.5 23:37:28 30° SSW 23:39:13 43° W 23:43:47 10° NNW
H-2A R/B 3.8 23:38:30 24° SW 23:39:45 28° W 23:43:24 10° NW
Cosmos 1470 Rocket 3.6 23:35:51 10° NNW 23:40:19 69° W 23:41:47 40° SSW
Cosmos 1869 Rocket 4.4 23:36:58 10° N 23:41:07 41° ENE 23:42:59 27° SE
USA 234 3.2 23:38:50 13° SE 23:44:53 77° SSW 23:51:28 10° WNW
Lacrosse 4 Rocket 1.2 23:41:21 10° NW 23:45:24 74° WSW 23:46:29 47° SSE
Meteor 2-4 Rocket 4.3 23:42:30 23° SW 23:46:07 56° WNW 23:51:59 10° N
NOSS 8 (A) 4.2 23:46:21 56° SW 23:47:01 86° SE 23:50:05 10° NE
Cosmos 1633 Rocket 4.2 23:49:41 10° NNW 23:53:41 34° W 23:55:08 27° SW
